Baileyville, IL (61007)

10:01 PM CDT on May 04, 2015 (GMT -0500)
KILFREEP4 | | Change Station
CLOSE
Current Station
Personal Weather Station
Location: Freeport, IL
Elevation: 792 ft
Nearby Weather Stations

Elev 792 ft 42.26 °N, 89.62 °W | Updated 2 minutes ago

Overcast
Overcast
62.7 °F
Feels Like 62.7 °F
N
8.0
Wind Variable Wind from ESE
Gusts 11.0 mph

Today
High -- | Low -- °F
--% Chance of Precip.
Yesterday
High -- | Low -- °F
Precip. -- in
5:50 AM 8:00 PM
Full, 99% visible
Pressure 30.16 in
Visibility 10.0 miles
Clouds Overcast 8000 ft
Dew Point 55 °F
Humidity 75%
Rainfall 0.15 in
Snow Depth Not available.
UV 0 out of 12
Pollen 1.30 out of 12
Air Quality Not available.
Flu Activity Local Activity
METAR KFEP 050255Z AUTO 09013G19KT 10SM OVC080 16/11 A3016 RMK AO2 LTG DSNT S AND SW T01620108

More Conditions Fewer Conditions

Pressure 30.16 in
Visibility 10.0 miles
Clouds Overcast 8000 ft
Dew Point 55 °F
Humidity 75%
Rainfall 0.15 in
Snow Depth Not available.
UV 0 out of 12
Pollen 1.30 out of 12
Air Quality Not available.
Flu Activity Local Activity
METAR KFEP 050255Z AUTO 09013G19KT 10SM OVC080 16/11 A3016 RMK AO2 LTG DSNT S AND SW T01620108

More Conditions Fewer Conditions

Nepal has a long way to go to dig out and rebuild from a devastating earthquake. We have teamed up with several charities and organizations to make contributing to the relief effort as easy as possible.
How you can help: Portlight Strategies | Red Cross

10-Day Weather Forecast

Almanac

Astronomy

May. 04, 2015 Rise Set
Actual Time
Civil Twilight
Nautical Twilight
Astronomical Twilight
Moon
Length of Visible Light
Length of Day
Tomorrow will be .
, % of the Moon is Illuminated

Today's Extremes

State Highs State Lows

Community

WunderPhotos

Upload Photos

1,818,804 photos uploaded!

WunderBlogs® & News

Nearby

Air Quality

  Air Quality AQ Index Pollutant
Not available.

Snow Depth

Station Depth Elevation

Earthquake Activity

City Distance Mag. Time & Date
Minimum magnitude displayed is 2.5.

Coastal Water Temperatures

Place Temperature

Stations

Nearby Weather Stations

Station Location Temp. Windchill Dew Point Humidity Wind Precip. Elev Updated Type